sat.trackr.live / text

‹ back to catalog

FLOCK 4Q-13

NORAD 58328 · 2023-174CA

PAYLOAD ACTIVE UNKNOWN

§ Identity

Operator
Country
US
Launch date
2023-11-11
Launch site
AFWTR
Launch vehicle
Mass (kg)
RCS (m²)

Purposes: earth_obs

External: N2YO · Heavens-Above · Gunter

§ Orbital elements

Epoch: 2026-09-19T05:14:32.421984Z

Period
92.55 min
Inclination
97.3977°
Eccentricity
0.0006229
Mean motion
15.55833172 rev/d
Perigee alt
395.5 km
Apogee alt
404.0 km
Semi-major
6,777.9 km
B*
3.4479e-4
RAAN
356.0536°
Arg perigee
154.8252°
Mean anomaly
205.3308°
Rev number
16,027

§ Raw data

FLOCK 4Q-131 58328U 23174CA  26262.21843081  .00023782  00000+0  34479-3 0  99992 58328  97.3977 356.0536 0006229 154.8252 205.3308 15.55833172160271

JSON: /api/v1/satellites/58328 · /tle

For live sub-satellite position, see the globe view (requires WebGL).

§ Visibility from observer

Set your observer location to see the next 7 days of passes ≥ 10°. The values pass through the URL so the page stays shareable.

No JS? Fill the form by hand. The geolocation button needs JavaScript.